Overview Statistics Trail Chart Weather Telemetry Raw packets
 

This is the latest recevied weather packets stored in our database for station/object SQ6ILB-11. If no packets are shown the sender has not sent any weather packets the latest 10 day(s).

<< 29 30 31 32 33 34 35 >>
Time Temp. Humidity Pressure Rain* Wind** Luminosity Snow
1787916387 25.56° C 62% 983.3 hPa - - - -
1787915487 25° C 61% 983 hPa - - - -
1787914586 24.44° C 62% 983 hPa - - - -
1787913686 24.44° C 65% 983 hPa - - - -
1787912786 23.89° C 62% 983.3 hPa - - - -
1787911888 23.33° C 66% 983.6 hPa - - - -
1787910986 22.78° C 65% 984.2 hPa - - - -
1787910086 22.78° C 64% 984.5 hPa - - - -
1787909186 22.78° C 68% 985 hPa - - - -
1787908286 22.22° C 71% 984.7 hPa - - - -
1787907385 21.67° C 68% 984.2 hPa - - - -
1787906485 21.11° C 69% 984.1 hPa - - - -
1787905585 20.56° C 71% 984.5 hPa - - - -
1787904685 20° C 68% 984.7 hPa - - - -
1787903785 19.44° C 70% 984.8 hPa - - - -
1787902885 19.44° C 67% 985.2 hPa - - - -
1787901984 18.89° C 67% 985.3 hPa - - - -
1787901084 18.33° C 65% 985.5 hPa - - - -
1787900184 18.33° C 74% 984.8 hPa - - - -
1787899284 17.78° C 71% 984.8 hPa - - - -
1787898384 17.22° C 71% 984.9 hPa - - - -
1787897484 16.67° C 67% 984.6 hPa - - - -
1787896584 16.67° C 67% 984.7 hPa - - - -
1787895683 16.67° C 63% 985 hPa - - - -
1787894783 16.67° C 62% 984.8 hPa - - - -

* Rain since midnight (hover to see other rain measurements)
** Current wind speed in m/s (hover to see current wind gust speed)